#timestamp,LO_Frequency,Hit,StdDev 
1640768415.3,286047000.0,N
1640768435.2,286046999.8,N
1640768455.0,286047002.7,N
1640768455.9,286047002.7,N
1640768475.8,286046999.7,N
1640768495.6,286047002.5,N
1640768515.4,286047000.1,N
1640768535.3,286047002.4,N
1640768555.1,286047000.4,N
1640768575.8,286047000.8,N
1640768595.7,286047000.6,N
1640768615.5,286047000.5,N
1640768635.4,286047002.3,N
1640768655.2,286047000.8,N
1640768675.0,286047000.5,N
1640768675.9,286047000.5,N
1640768695.8,286046999.8,N
1640768715.6,286047002.8,N
1640768735.5,286047002.3,N
1640768755.3,286047002.4,N
1640768775.1,286047002.3,N
1640768795.9,286047001.5,N
1640768815.7,286047001.6,N
1640768835.5,286047002.7,N
1640768855.4,286047003.8,N
1640768875.2,286047001.3,N
1640768895.1,286047003.9,Y
1640768896.0,286047003.9,P
1640768915.8,286047000.8,N
1640768935.6,286047000.4,N
1640768955.5,286046999.9,N
1640768975.3,286046999.9,N
1640768995.2,286047000.7,N
1640769015.9,286047000.7,N
1640769035.7,286047000.7,N
1640769055.6,286047000.8,N
1640769075.4,286046998.1,N
1640769095.3,286046998.2,N
1640769115.1,286047000.8,N
1640769116.0,286047000.8,N
1640769135.8,286047001.0,N
1640769155.7,286047000.4,N
1640769175.5,286047001.0,N
1640769195.4,286047000.9,N
1640769215.2,286047001.0,N
1640769235.0,286047000.5,N
1640769235.9,286047000.5,N
1640769255.8,286047000.1,N
1640769275.6,286047000.5,N
1640769295.4,286047002.7,N
1640769315.3,286047002.5,N
1640769335.1,286046999.7,N
1640769355.9,286047002.6,N
1640769375.7,286047002.6,N
1640769395.5,286046999.9,N
1640769415.4,286047001.0,N
1640769435.2,286047001.0,N
1640769455.0,286046998.3,N
1640769456.0,286046998.3,N
1640769475.8,286046998.1,N
1640769495.6,286047002.7,N
1640769515.5,286047002.3,N
1640769535.3,286047002.4,N
1640769555.1,286047000.3,N
1640769575.9,286047002.4,N
1640769595.7,286047002.4,N
1640769615.6,286046999.8,N
1640769635.4,286047000.0,N
1640769655.2,286047001.1,N
1640769675.1,286047001.0,N
1640769676.0,286047001.0,N
1640769695.8,286047000.4,N
1640769715.7,286046999.9,N
1640769735.5,286046999.8,N
1640769755.3,286047001.6,N
1640769775.2,286047001.4,N
1640769795.0,286047001.5,N
1640769795.9,286047001.5,N
1640769815.7,286047002.4,N
1640769835.6,286047002.3,N
1640769855.4,286047002.5,N
1640769875.3,286047002.8,N
1640769895.1,286047002.0,N
1640769896.0,286047002.0,N
1640769915.8,286047001.6,N
1640769935.7,286047002.2,N
1640769955.5,286047002.0,N
1640769975.3,286047001.5,N
1640769995.2,286047001.9,N
1640770015.0,286047002.1,N
1640770015.9,286047002.1,N
1640770035.8,286046999.7,N
1640770055.6,286047000.0,N
1640770105.5,286047002.8,E
1640770115.4,286046999.9,N
1640770135.2,286046998.9,P
1640770155.1,286046998.5,P
1640770156.0,286046998.5,N
1640770175.8,286047001.2,N
1640770195.6,286046998.1,N
1640770215.5,286047000.7,N
1640770235.3,286047000.5,N
1640770255.2,286047000.6,N
1640770275.9,286047001.1,N
1640770295.7,286047001.2,N
1640770315.6,286046998.1,N
1640770335.4,286047000.7,N
1640770355.2,286046999.1,N
1640770375.1,286046999.2,N
1640770376.0,286046999.2,N
1640770395.8,286046999.3,N
1640770415.7,286046999.6,N
1640770435.5,286046998.7,N
1640770455.3,286046998.1,N
1640770475.2,286046998.3,N
1640770495.0,286047001.1,N
1640770495.9,286047001.1,N
1640770515.8,286047000.7,N
1640770535.6,286046998.3,N
1640770555.4,286047000.9,N
1640770575.3,286046998.4,N
1640770595.1,286046998.6,N
1640770615.8,286046999.4,N
1640770635.7,286046999.3,N
1640770655.5,286046998.7,N
1640770675.4,286046999.6,N
1640770695.2,286046998.6,N
1640770715.0,286046999.3,N
1640770715.9,286046999.3,N
1640770735.8,286046997.8,N
1640770755.6,286046997.3,N
1640770775.4,286046997.6,N
1640770795.3,286046997.3,N
1640770815.1,286046997.4,N
1640770835.9,286046995.8,Y
1640770855.7,286046995.6,P
1640770875.5,286046995.3,N
1640770895.4,286046995.5,N
1640770915.2,286046995.1,Y
1640770935.1,286047000.7,P
1640770936.0,286047000.7,N
1640770955.8,286047000.9,N
1640770975.6,286047000.1,N
1640770995.5,286047002.2,N
1640771015.3,286047000.0,N
1640771035.1,286047000.5,N
1640771055.9,286047001.0,N
1640771075.7,286047003.7,N
1640771095.6,286047004.0,N
1640771115.4,286047001.5,N
1640771135.2,286047000.1,N
1640771155.1,286047002.2,N
1640771156.0,286047002.2,N
1640771175.8,286047002.2,N
1640771195.6,286047004.2,N
1640771215.5,286047001.9,N
1640771235.3,286047004.1,N
1640771255.2,286047005.9,Y
1640771275.9,286047002.5,P
1640771295.7,286047004.2,P
1640771315.6,286047001.5,N
1640771335.4,286047002.5,N
1640771355.2,286047002.2,N
1640771375.1,286047002.3,N
1640771376.0,286047002.3,N
1640771395.8,286047011.9,Y
1640771415.7,286046998.2,P
1640771435.5,286047001.2,N
1640771455.3,286046998.2,N
1640771475.2,286047000.0,N
1640771495.0,286047000.9,N
1640771495.9,286047000.9,N
1640771515.8,286047000.3,N
1640771535.6,286047000.9,N
1640771555.4,286047002.8,N
1640771575.3,286047000.5,N
1640771595.1,286047001.0,N
1640771615.8,286047000.6,N
1640771635.7,286047000.5,N
1640771655.5,286047000.3,N
1640771675.3,286047000.6,N
1640771695.2,286046998.5,N
1640771715.0,286046999.4,N
1640771715.9,286046999.4,N
1640771735.8,286046996.5,N
1640771755.6,286046999.6,N
1640771775.4,286046997.8,N
1640771795.3,286046997.2,N
1640771815.1,286046999.3,N
1640771835.8,286046998.7,N
1640771855.7,286046999.7,N
1640771875.5,286047000.4,N
1640771895.4,286046998.4,N
1640771915.2,286046994.9,Y
1640771935.0,286046993.3,P
1640771935.9,286046993.3,N
1640771955.8,286046995.9,N
1640771975.6,286046994.1,N
1640771995.5,286046993.8,N
